Location: Unspecified
(0.0000°N, 0.0000°E)
Time: 16:18:30
(UTC+00:00)

Explorer 11/Cluster Stage 4 - Pass Details

Date: 27 November 2019
Orbit: 467 x 1259 km, 28.8° (Epoch: 12 December)

Event Time Altitude Azimuth Distance (km) Brightness Sun altitude
Rises 11:06:38 0° 228° (SW) 3,259 9.9 66.6°
Reaches altitude 10° 11:09:31 10° 220° (SW) 2,186 9.2 66.9°
Maximum altitude 11:14:09 37° 153° (SSE) 956 8.3 67.4°
Drops below altitude 10° 11:18:00 10° 84° (E) 1,803 8.7 67.7°
Sets 11:20:10 0° 75° (ENE) 2,614 9.3 67.9°
